Location: Arrodets-la-Barthe
(43.0306°N, 0.2829°E)
Time: 07:26:51
(UTC+00:00)

CUBEBUG 2 - Pass Details

Date: 02 April 2023
Orbit: 577 x 685 km, 97.8° (Epoch: 03 June)

Event Time Altitude Azimuth Distance (km) Brightness Sun altitude
Rises 02:04:47 0° 18° (NNE) 3,062 ? -34.8°
Reaches altitude 10° 02:07:09 10° 25° (NNE) 2,135 ? -34.5°
Enters shadow 02:09:37 28° 43° (NE) 1,270 ? -34.2°
